Location: Unspecified
(0.0000°N, 0.0000°E)
Time: 17:31:20
(UTC+00:00)

ISS - Pass Details

Date: 18 January 2021
Orbit: 418 x 421 km, 51.6° (Epoch: 25 January)

Event Time Altitude Azimuth Distance (km) Brightness Sun altitude
Exits shadow 04:19:32 30° 126° (SE) 778 -1.8 -25.8°
Drops below altitude 10° 04:21:24 10° 136° (SE) 1,493 -0.1 -25.4°
Sets 04:23:31 0° 140° (SE) 2,358 1.1 -24.9°
